Notices

What's New in latest Release from April 7th, 2021:

- Updated Glossary, including Speed of Maximum Gust, and Total Hourly Precipitation

- Updated national and regional climate services offices contacts and prices information

- Addition of station inventory lists for 1981-2010, 1971-2000, and 1961-1990 Normals.

If you haven't already, please take our survey and provide feedback about our website: https://eccc.sondage-survey.ca/f/LanguageSelection.aspx?s=442ca660-fcf1-47c0-95a9-59707d6fd709

Hourly Data Report for November 08, 2019

SEPT-ILES
QUEBEC
Current Station Operator: ECCC - MSC

50°13'00.000" N
66°15'00.000" W
52.60 m
7047914
71279
XZV

Download Data

Hourly Data (November 2019)
Hourly Data Report for November 8, 2019
TIME
LST
Temp Definition
°C
Dew Point Definition
°C
Rel Hum Definition
%
Precip. Amount Definition
mm

Wind Dir Definition
10's deg

Wind Spd Definition
km/h
Visibility Definition
km
Stn Press Definition
kPa
Hmdx Definition


Wind Chill Definition


Weather Definition


00:00 -11.1 -13.2 85 0.0 31 4   100.91   -14 LegendNANA
01:00 -11.7 -13.7 85 0.0 30 3   100.90   -14 LegendNANA
02:00 -12.2 -14.1 85 0.0 32 5   100.88   -15 LegendNANA
03:00 -11.8 -13.5 88 0.0 33 5   100.84   -15 LegendNANA
04:00 -11.2 -13.1 86 0.2 34 5   100.82   -14 LegendNANA
05:00 -11.7 -13.8 84 0.0 36 2   100.76   -13 LegendNANA
06:00 -9.3 -10.5 91 0.0 2 5   100.74   -12 LegendNANA
07:00 -7.6 -11.0 76 0.2 33 7   100.74   -11 LegendNANA
08:00 -4.8 -10.8 63 0.0 34 8   100.70   -8 LegendNANA
09:00 -2.9 -11.4 52 0.0 36 12   100.63   -7 LegendNANA
10:00 -2.3 -13.6 41 0.0 1 17   100.57   -8 LegendNANA
11:00 -1.1 -14.0 37 0.0 2 17   100.52   -6 LegendNANA
12:00 -0.7 -15.2 32 0.0 35 19   100.44   -6 LegendNANA
13:00 -0.3 -14.4 34 0.0 35 20   100.38   -6 LegendNANA
14:00 -0.4 -13.8 36 0.0 36 18   100.34   -5 LegendNANA
15:00 -1.3 -12.7 42 0.0 33 16   100.33   -6 LegendNANA
16:00 -2.2 -12.5 45 0.0 33 22   100.36   -8 LegendNANA
17:00 -2.9 -12.0 49 0.0 33 14   100.36   -8 LegendNANA
18:00 -3.7 -12.0 52 0.0 32 12   100.40   -8 LegendNANA
19:00 -3.6 -10.6 58 0.0 33 13   100.42   -8 LegendNANA
20:00 -4.1 -10.7 60 0.0 33 11   100.43   -9 LegendNANA
21:00 -4.5 -11.7 57 0.0 32 12   100.41   -9 LegendNANA
22:00 -4.7 -12.8 53 0.0 31 18   100.39   -11 LegendNANA
23:00 -5.0 -13.2 53 0.0 32 16   100.41   -11 LegendNANA

Notes on Data Quality.

Legend

  • E = Estimated
  • M = Missing
  • NA = Not Available*
  • [empty] = Indicates an unobserved value
Date modified: